FW8373 Weather Reports


time (UTC)temp
C
wind
direction
speed
KPH
gust
KPH
rain 1hr
cm
rain 24hr
cm
rain mn
cm
humidity
%
barometer
mb
20260508220536 13 270 3.2 6.4 0.00 0.00 0.00 32 1008.2
20260508220027 13 270 3.2 6.4 0.00 0.00 0.00 32 1007.9
20260508215516 13 248 3.2 9.7 0.00 0.00 0.00 31 1008.1
20260508215006 13 270 3.2 9.7 0.00 0.00 0.00 30 1008.0
20260508213945 13 270 6.4 12.9 0.00 0.00 0.00 29 1007.8
20260508213436 14 270 6.4 12.9 0.00 0.00 0.00 28 1007.6
20260508212926 14 270 6.4 12.9 0.00 0.00 0.00 28 1007.8
20260508212415 14 270 6.4 14.5 0.00 0.00 0.00 27 1007.6
20260508211905 15 248 9.7 14.5 0.00 0.00 0.00 26 1007.6
20260508211356 15 270 6.4 17.7 0.00 0.00 0.00 25 1007.4
20260508210844 15 270 4.8 22.5 0.00 0.00 0.00 25 1007.4
20260508210336 15 270 12.9 22.5 0.00 0.00 0.00 24 1007.5
20260508205825 15 270 11.3 22.5 0.00 0.00 0.00 23 1007.5
20260508205324 15 270 16.1 24.1 0.00 0.00 0.00 22 1007.5
20260508204804 16 270 12.9 24.1 0.00 0.00 0.00 22 1007.5
20260508204257 16 293 12.9 32.2 0.00 0.00 0.00 22 1007.3
20260508203745 16 248 12.9 32.2 0.00 0.00 0.00 22 1007.5
20260508203233 16 270 16.1 33.8 0.00 0.00 0.00 22 1007.2
20260508202724 16 293 17.7 33.8 0.00 0.00 0.00 22 1007.3
20260508202215 16 293 12.9 29.0 0.00 0.00 0.00 24 1007.2
20260508201703 16 293 6.4 27.4 0.00 0.00 0.00 25 1006.9
20260508200643 16 270 9.7 27.4 0.00 0.00 0.00 25 1006.9
20260508200133 16 248 11.3 27.4 0.00 0.00 0.00 25 1006.8
20260508195115 16 225 16.1 32.2 0.00 0.00 0.00 24 1007.0
20260508194602 16 270 16.1 32.2 0.00 0.00 0.00 25 1007.0
20260508194054 16 270 17.7 27.4 0.00 0.00 0.00 26 1007.1
20260508193542 16 225 9.7 27.4 0.00 0.00 0.00 27 1007.1
20260508193031 16 270 11.3 27.4 0.00 0.00 0.00 27 1007.1
20260508192521 16 270 12.9 27.4 0.00 0.00 0.00 27 1007.3
20260508192011 16 315 12.9 27.4 0.00 0.00 0.00 27 1007.2
20260508191501 16 248 12.9 25.7 0.00 0.00 0.00 27 1007.3
20260508190951 16 270 16.1 27.4 0.00 0.00 0.00 28 1007.2
20260508190441 16 293 17.7 29.0 0.00 0.00 0.00 28 1007.4
20260508185931 16 270 11.3 32.2 0.00 0.00 0.00 29 1007.3
20260508185423 16 270 16.1 32.2 0.00 0.00 0.00 29 1007.6
20260508184913 16 293 9.7 32.2 0.00 0.00 0.00 29 1007.8
20260508184417 16 248 17.7 32.2 0.00 0.00 0.00 30 1007.6
20260508183850 16 248 20.9 29.0 0.00 0.00 0.00 29 1007.8
20260508183340 16 293 14.5 29.0 0.00 0.00 0.00 31 1008.0
20260508182830 16 225 16.1 33.8 0.00 0.00 0.00 31 1008.0
20260508182325 16 248 12.9 33.8 0.00 0.00 0.00 31 1008.1
20260508181813 16 248 14.5 29.0 0.00 0.00 0.00 31 1008.0
20260508181301 16 270 17.7 27.4 0.00 0.00 0.00 30 1008.0
20260508180749 15 248 17.7 27.4 0.00 0.00 0.00 32 1008.1
20260508180242 16 270 11.3 32.2 0.00 0.00 0.00 33 1008.1
20260508175729 16 270 12.9 32.2 0.00 0.00 0.00 33 1008.2
20260508175219 15 248 16.1 35.4 0.00 0.00 0.00 32 1008.2
20260508174712 15 248 16.1 35.4 0.00 0.00 0.00 33 1008.3
20260508174201 15 225 12.9 32.2 0.00 0.00 0.00 33 1008.3
20260508172629 15 293 17.7 32.2 0.00 0.00 0.00 35 1008.1
20260508172118 15 270 12.9 32.2 0.00 0.00 0.00 35 1008.4
20260508171609 15 270 11.3 27.4 0.00 0.00 0.00 37 1008.5
20260508171105 15 270 6.4 27.4 0.00 0.00 0.00 36 1008.5
20260508170548 15 293 16.1 25.7 0.00 0.00 0.00 35 1008.6
20260508170039 15 248 9.7 25.7 0.00 0.00 0.00 36 1008.7
20260508165528 15 270 16.1 32.2 0.00 0.00 0.00 38 1008.9
20260508165018 15 293 14.5 32.2 0.00 0.00 0.00 37 1008.9
20260508164507 15 315 11.3 27.4 0.00 0.00 0.00 37 1009.0
20260508163957 15 270 11.3 27.4 0.00 0.00 0.00 38 1009.1
20260508163446 15 248 16.1 29.0 0.00 0.00 0.00 39 1009.2
20260508162938 14 270 9.7 29.0 0.00 0.00 0.00 39 1009.3
20260508162427 15 248 12.9 24.1 0.00 0.00 0.00 39 1009.3
20260508161916 14 248 12.9 27.4 0.00 0.00 0.00 40 1009.3
20260508161406 14 225 12.9 27.4 0.00 0.00 0.00 40 1009.4
20260508160856 14 225 9.7 27.4 0.00 0.00 0.00 40 1009.7
20260508160346 14 248 6.4 27.4 0.00 0.00 0.00 41 1009.5
20260508155835 14 248 14.5 24.1 0.00 0.00 0.00 40 1010.0
20260508155327 13 248 14.5 27.4 0.00 0.00 0.00 40 1010.0
20260508154815 13 293 14.5 32.2 0.00 0.00 0.00 41 1010.0
20260508154305 13 338 16.1 32.2 0.00 0.00 0.00 41 1010.4
20260508153246 13 293 9.7 32.2 0.00 0.00 0.00 42 1010.4
20260508152734 13 248 12.9 32.2 0.00 0.00 0.00 41 1010.5
20260508151714 13 248 12.9 25.7 0.00 0.00 0.00 43 1010.5
20260508151204 13 248 14.5 27.4 0.00 0.00 0.00 43 1010.8
20260508150654 13 270 12.9 27.4 0.00 0.00 0.00 43 1010.9
20260508150144 13 270 16.1 27.4 0.00 0.00 0.00 43 1010.9
20260508145635 13 270 17.7 27.4 0.00 0.00 0.00 43 1011.0
20260508145126 13 270 19.3 27.4 0.00 0.00 0.00 44 1011.0
20260508144616 13 293 9.7 32.2 0.00 0.00 0.00 44 1010.8
20260508144103 12 293 16.1 46.7 0.00 0.00 0.00 45 1011.0
20260508143555 12 248 19.3 46.7 0.00 0.00 0.00 45 1010.7
20260508143045 12 270 17.7 33.8 0.00 0.00 0.00 45 1010.9
20260508142535 12 270 17.7 33.8 0.00 0.00 0.00 45 1010.7
20260508142023 12 270 12.9 32.2 0.00 0.00 0.00 45 1010.7
20260508141514 12 270 17.7 32.2 0.00 0.00 0.00 46 1010.7
20260508141003 12 248 12.9 29.0 0.00 0.00 0.00 45 1010.8
20260508140454 12 293 12.9 29.0 0.00 0.00 0.00 45 1010.9
20260508135942 12 248 17.7 29.0 0.00 0.00 0.00 46 1010.7
20260508135437 11 270 17.7 29.0 0.00 0.00 0.00 46 1010.8
20260508134922 12 225 12.9 27.4 0.00 0.00 0.00 46 1011.0
20260508134412 11 293 14.5 27.4 0.00 0.00 0.00 46 1010.8
20260508133902 11 270 17.7 29.0 0.00 0.00 0.00 46 1010.9
20260508132851 11 293 16.1 27.4 0.00 0.00 0.00 49 1011.0
20260508131821 11 270 11.3 22.5 0.00 0.00 0.00 49 1010.8
20260508131313 11 248 12.9 25.7 0.00 0.00 0.00 49 1010.7
20260508130803 11 248 11.3 27.4 0.00 0.00 0.00 50 1010.7
20260508130251 10 248 17.7 27.4 0.00 0.00 0.00 50 1010.8
20260508125740 10 293 16.1 27.4 0.00 0.00 0.00 51 1010.7
20260508125230 10 225 14.5 29.0 0.00 0.00 0.00 51 1010.6
20260508124721 10 270 12.9 29.0 0.00 0.00 0.00 51 1010.6
20260508124211 10 293 9.7 22.5 0.00 0.00 0.00 52 1010.7
20260508123700 10 270 16.1 22.5 0.00 0.00 0.00 52 1010.5
20260508123150 10 248 14.5 25.7 0.00 0.00 0.00 53 1010.5
20260508122642 10 248 12.9 25.7 0.00 0.00 0.00 53 1010.3
20260508122131 9 270 12.9 24.1 0.00 0.00 0.00 54 1010.5
20260508121621 9 270 11.3 27.4 0.00 0.00 0.00 56 1010.5
20260508121109 9 293 9.7 27.4 0.00 0.00 0.00 57 1010.6
20260508120050 8 293 11.3 20.9 0.00 0.00 0.00 59 1010.3
20260508115539 8 293 12.9 20.9 0.00 0.00 0.00 60 1010.4
20260508115029 8 248 12.9 17.7 0.00 0.00 0.00 61 1010.2
20260508114519 8 270 8.0 20.9 0.00 0.00 0.00 61 1010.1
20260508114008 8 315 9.7 20.9 0.00 0.00 0.00 62 1010.2
20260508112948 7 315 6.4 17.7 0.00 0.00 0.00 63 1009.9
20260508112438 7 270 8.0 22.5 0.00 0.00 0.00 63 1009.9
20260508111929 7 293 4.8 22.5 0.00 0.00 0.00 63 1009.8
20260508111419 7 293 6.4 20.9 0.00 0.00 0.00 62 1009.7
20260508110907 8 293 11.3 17.7 0.00 0.00 0.00 60 1009.7
20260508105849 8 248 6.4 20.9 0.00 0.00 0.00 58 1009.4
20260508105339 8 180 8.0 20.9 0.00 0.00 0.00 58 1009.3
20260508104829 8 180 6.4 20.9 0.00 0.00 0.00 57 1009.2
20260508103807 8 180 6.4 20.9 0.00 0.00 0.00 56 1009.1
20260508103257 8 180 6.4 17.7 0.00 0.00 0.00 55 1008.7
20260508101727 8 180 9.7 27.4 0.00 0.00 0.00 54 1008.3
20260508100706 9 180 11.3 29.0 0.00 0.00 0.00 53 1008.3
20260508100201 9 180 12.9 24.1 0.00 0.00 0.00 53 1008.3
20260508095646 9 180 12.9 32.2 0.00 0.00 0.00 53 1008.1
20260508095139 9 180 14.5 32.2 0.00 0.00 0.00 53 1008.3
20260508094630 8 180 12.9 29.0 0.00 0.00 0.00 54 1008.4
20260508094116 8 180 12.9 32.2 0.00 0.00 0.00 54 1008.1
20260508093057 8 180 12.9 32.2 0.00 0.00 0.00 56 1008.2
20260508092547 8 180 12.9 27.4 0.00 0.00 0.00 57 1008.1
20260508091526 8 180 12.9 33.8 0.00 0.00 0.00 59 1007.8
20260508091020 8 180 8.0 27.4 0.00 0.00 0.00 60 1007.7
20260508085954 8 180 17.7 29.0 0.00 0.00 0.00 61 1007.5
20260508085445 8 180 11.3 24.1 0.00 0.00 0.00 62 1007.3
20260508084940 8 180 9.7 20.9 0.00 0.00 0.00 63 1007.3
20260508084423 8 180 8.0 22.5 0.00 0.00 0.00 64 1006.9
20260508083913 8 180 9.7 25.7 0.00 0.00 0.00 64 1007.1
20260508083405 8 180 9.7 25.7 0.00 0.00 0.00 64 1007.2
20260508082854 8 180 9.7 22.5 0.00 0.00 0.00 64 1006.9
20260508080302 8 180 8.0 17.7 0.00 0.00 0.00 63 1007.0
20260508075752 8 180 4.8 17.7 0.00 0.00 0.00 63 1007.1
20260508075242 8 180 6.4 17.7 0.00 0.00 0.00 62 1007.1
20260508074732 8 180 6.4 17.7 0.00 0.00 0.00 62 1006.9
20260508073713 8 180 11.3 25.7 0.00 0.00 0.00 62 1007.0
20260508072652 9 180 11.3 20.9 0.00 0.00 0.00 62 1007.0
20260508072141 9 180 8.0 20.9 0.00 0.00 0.00 63 1007.1
20260508071631 8 180 11.3 20.9 0.00 0.00 0.00 64 1007.0
20260508070611 8 180 6.4 22.5 0.00 0.00 0.00 65 1007.1
20260508065552 9 180 9.7 17.7 0.00 0.00 0.00 64 1006.9
20260508064531 9 180 9.7 20.9 0.00 0.00 0.00 63 1007.1
20260508064022 9 180 8.0 24.1 0.00 0.00 0.00 62 1007.0
20260508063511 9 180 9.7 24.1 0.00 0.00 0.00 61 1006.8
20260508062451 9 180 6.4 17.7 0.00 0.00 0.00 62 1006.9
20260508061940 10 180 11.3 20.9 0.00 0.00 0.00 62 1006.9
20260508061431 10 180 8.0 20.9 0.00 0.00 0.00 61 1006.8
20260508060922 10 180 11.3 20.9 0.00 0.00 0.00 61 1006.7
20260508060414 10 180 11.3 0.0 0.00 0.00 0.00 61 1007.1
20260508060201 10 180 11.3 0.0 0.00 0.00 0.00 61 1007.1
20260508055611 10 180 4.8 14.5 0.00 0.53 0.00 63 1007.0
20260508055102 10 180 6.4 14.5 0.00 0.53 0.00 62 1007.2
20260508054551 10 180 6.4 12.9 0.00 0.53 0.00 63 1007.2
20260508054041 9 180 6.4 12.9 0.00 0.53 0.00 65 1007.4
20260508053022 9 180 9.7 14.5 0.00 0.53 0.00 66 1007.3
20260508052510 9 180 4.8 12.9 0.00 0.53 0.00 68 1007.6
20260508051449 9 180 6.4 17.7 0.00 0.53 0.00 69 1007.4
20260508050939 9 180 4.8 14.5 0.00 0.53 0.00 70 1007.3
20260508050429 9 180 6.4 14.5 0.00 0.53 0.00 69 1007.4
20260508045919 9 180 4.8 14.5 0.00 0.53 0.00 70 1007.6
20260508045410 9 180 3.2 12.9 0.00 0.53 0.00 71 1007.4
20260508044350 9 180 6.4 17.7 0.00 0.53 0.00 71 1007.3
20260508043838 9 180 6.4 17.7 0.00 0.53 0.00 70 1007.2
20260508043329 9 180 6.4 14.5 0.00 0.53 0.00 70 1006.8
20260508041807 9 180 6.4 12.9 0.00 0.53 0.00 71 1006.9
20260508041248 10 180 3.2 11.3 0.00 0.53 0.00 69 1006.7
20260508040738 10 180 3.2 9.7 0.00 0.53 0.00 67 1006.5
20260508040229 10 180 4.8 11.3 0.00 0.53 0.00 66 1006.2
20260508035718 11 180 4.8 17.7 0.00 0.53 0.00 63 1005.8
20260508034659 11 180 3.2 17.7 0.00 0.53 0.00 63 1005.4
20260508034147 10 180 8.0 17.7 0.00 0.53 0.00 65 1005.7
20260508033644 10 180 6.4 14.5 0.00 0.53 0.00 66 1005.9
20260508032618 10 180 6.4 14.5 0.00 0.53 0.00 67 1006.1
20260508032106 10 180 8.0 14.5 0.00 0.53 0.00 66 1006.3
20260508031557 10 180 4.8 14.5 0.00 0.53 0.00 65 1006.1
20260508031045 10 180 6.4 12.9 0.00 0.53 0.00 65 1005.9
20260508030536 11 180 6.4 14.5 0.00 0.53 0.00 64 1006.2
20260508030027 11 180 6.4 14.5 0.00 0.53 0.00 63 1006.1
20260508025516 11 180 6.4 14.5 0.00 0.53 0.53 63 1006.1
20260508025005 11 180 6.4 14.5 0.00 0.53 0.53 62 1006.2
20260508024455 11 180 6.4 12.9 0.00 0.53 0.53 62 1006.2
20260508023947 11 180 6.4 17.7 0.00 0.53 0.53 62 1006.4
20260508022928 11 180 6.4 17.7 0.00 0.53 0.53 61 1006.4
20260508021355 12 203 4.8 12.9 0.00 0.53 0.53 61 1006.4
20260508020846 11 248 8.0 17.7 0.00 0.53 0.53 62 1006.4
20260508020334 12 225 6.4 17.7 0.00 0.53 0.53 61 1006.5
20260508015314 12 225 6.4 17.7 0.00 0.53 0.53 63 1006.4
20260508014805 11 225 9.7 14.5 0.00 0.53 0.53 65 1006.3
20260508014254 11 270 6.4 14.5 0.00 0.53 0.53 67 1006.3
20260508013747 11 270 6.4 11.3 0.00 0.53 0.53 67 1006.1
20260508013233 11 248 6.4 11.3 0.00 0.53 0.53 67 1006.1
20260508012726 11 270 6.4 20.9 0.00 0.53 0.53 68 1006.1
20260508012214 11 270 6.4 20.9 0.00 0.53 0.53 68 1005.9
20260508011703 11 248 4.8 14.5 0.00 0.53 0.53 70 1005.7
20260508011154 11 248 6.4 14.5 0.00 0.53 0.53 72 1005.6
20260508010133 11 293 6.4 17.7 0.00 0.53 0.53 72 1005.8
20260508005112 12 293 6.4 12.9 0.00 0.53 0.53 70 1006.0
20260508004602 12 270 3.2 11.3 0.00 0.53 0.53 69 1005.8
20260508003033 12 270 6.4 12.9 0.00 0.53 0.53 69 1005.5
20260508002521 12 270 6.4 11.3 0.00 0.53 0.53 70 1005.5
20260508002014 12 248 6.4 11.3 0.00 0.53 0.53 70 1005.5
20260508001502 12 270 3.2 11.3 0.00 0.53 0.53 72 1005.5
20260508000952 12 248 4.8 6.4 0.00 0.53 0.53 72 1005.4
20260508000443 12 270 3.2 6.4 0.00 0.53 0.53 72 1005.5
20260507235931 12 270 3.2 6.4 0.00 0.53 0.53 72 1005.2
20260507235420 12 270 1.6 6.4 0.00 0.53 0.53 71 1005.4
20260507234400 12 270 3.2 6.4 0.00 0.53 0.53 72 1005.4
20260507233850 12 248 3.2 6.4 0.00 0.53 0.53 72 1005.4
20260507232322 13 270 3.2 9.7 0.00 0.53 0.53 68 1005.5
20260507231809 13 248 3.2 9.7 0.00 0.53 0.53 68 1005.6
20260507231259 13 248 4.8 6.4 0.00 0.53 0.53 67 1005.6
20260507230751 13 248 3.2 6.4 0.00 0.53 0.53 67 1005.6
20260507230246 13 270 3.2 6.4 0.00 0.53 0.53 66 1005.5
20260507225731 13 270 3.2 11.3 0.00 0.53 0.53 66 1005.6
20260507225219 13 248 3.2 11.3 0.00 0.53 0.53 66 1005.4
20260507224710 13 270 3.2 11.3 0.00 0.53 0.53 65 1005.4
20260507224159 14 270 8.0 11.3 0.00 0.53 0.53 65 1005.2
20260507223648 13 270 6.4 12.9 0.00 0.53 0.53 66 1005.1
20260507222628 14 270 3.2 9.7 0.00 0.53 0.53 68 1005.1
20260507222120 14 248 3.2 9.7 0.00 0.53 0.53 68 1005.1
20260507221608 14 270 3.2 11.3 0.00 0.53 0.53 69 1004.8
20260507221058 14 293 4.8 11.3 0.00 0.53 0.53 69 1004.9